Date String (YYYY-MM-DD hh:mm:ss) UTC,Instrument flags,absolute air pressure of the measurement (hPa),sample flow rate (lpm),inlet stack bypass flow (lpm),air temperature of the measurement (°C),ambient temperature measured by the external sensor (°C),aerosol sample conditioner tube jacket temperature (°C),OPC LED temperature (°C),internal box temperature (°C),relative humidity of the measurement (%),span deviation,mass concentration of particles derived from Lorenz-Mie calculation of OPC scattering (μg/m³),mass concentration of particles derived from Lorenz-Mie calculation of OPC scattering (μg/m³),mass concentration of particles derived from Lorenz-Mie calculation of OPC scattering (μg/m³)
DateTimeUTC,F1_M11,P_M11,Q1_M11,Q2_M11,T1_M11,T2_M11,T3_M11,T4_M11,T5_M11,U1_M11,ZSPAN_M11,X0_M11,X2_M11,X1_M11
2023-11-23 09:00:00,SystemResetWarning,0829.4,5.00,000.00,024.8,023.7,000.0,033.4,025.9,9.7,0000.0,0009.51,0003.12,0001.96
2023-11-23 09:01:00,SystemResetWarning,0829.4,5.00,000.00,024.8,023.7,000.0,033.4,025.9,9.7,0000.0,0009.43,0003.08,0001.95
2023-11-23 09:02:00,SystemResetWarning,0829.4,5.00,000.00,024.8,023.7,000.0,033.3,025.9,9.8,0000.0,0009.07,0003.02,0001.93
2023-11-23 09:03:00,SystemResetWarning,0829.5,5.00,000.00,024.8,023.6,000.0,033.3,025.8,9.8,0000.0,0009.06,0003.03,0001.94
2023-11-23 09:04:00,SystemResetWarning,0829.5,5.00,000.00,024.7,023.6,000.0,033.3,025.7,9.8,0000.0,0008.85,0002.96,0001.92
2023-11-23 09:05:00,SystemResetWarning,0829.4,5.00,000.00,024.7,023.6,000.0,033.3,025.7,9.8,0000.0,0008.67,0002.98,0001.91
2023-11-23 09:06:00,SystemResetWarning,0829.5,4.99,000.00,024.7,023.6,000.0,033.3,025.7,9.8,0000.0,0008.90,0002.98,0001.89
2023-11-23 09:07:00,SystemResetWarning,0829.5,5.00,000.00,024.7,023.5,000.0,033.2,025.7,9.8,0000.0,0008.73,0002.97,0001.90
2023-11-23 09:08:00,SystemResetWarning,0829.5,5.00,000.00,024.6,023.5,000.0,033.2,025.6,9.8,0000.0,0008.39,0002.86,0001.88
2023-11-23 09:09:00,SystemResetWarning,0829.6,5.00,000.00,024.6,023.5,000.0,033.2,025.7,9.8,0000.0,0007.29,0002.78,0001.87
2023-11-23 09:10:00,SystemResetWarning,0829.5,5.00,000.00,024.6,023.5,000.0,033.2,025.6,9.9,0000.0,0007.90,0002.76,0001.85
2023-11-23 09:11:00,SystemResetWarning,0829.5,5.00,000.00,024.6,023.4,000.0,033.1,025.6,9.9,0000.0,0008.06,0002.69,0001.84
2023-11-23 09:12:00,SystemResetWarning,0829.5,5.00,000.00,024.5,023.4,000.0,033.1,025.6,9.9,0000.0,0008.52,0002.70,0001.83
2023-11-23 09:13:00,SystemResetWarning,0829.5,5.00,000.00,024.5,023.4,000.0,033.1,025.5,9.9,0000.0,0008.45,0002.68,0001.84
2023-11-23 09:14:00,SystemResetWarning,0829.5,5.00,000.00,024.5,023.4,000.0,033.1,025.5,9.9,0000.0,0008.40,0002.66,0001.83
2023-11-23 09:15:00,SystemResetWarning,0829.5,5.00,000.00,024.5,023.4,000.0,033.1,025.6,9.9,0000.0,0008.68,0002.66,0001.85
2023-11-23 09:16:00,SystemResetWarning,0829.5,5.00,000.00,024.5,023.3,000.0,033.0,025.5,9.9,0000.0,0008.73,0002.62,0001.84
2023-11-23 09:17:00,SystemResetWarning,0829.5,5.00,000.00,024.4,023.4,000.0,033.0,025.5,10.0,0000.0,0008.70,0002.58,0001.83
2023-11-23 09:18:00,SystemResetWarning,0829.5,5.00,000.00,024.4,023.4,000.0,033.0,025.5,10.0,0000.0,0009.25,0002.63,0001.83
2023-11-23 09:19:00,SystemResetWarning,0829.5,5.00,000.00,024.4,023.4,000.0,033.0,025.5,10.0,0000.0,0009.15,0002.71,0001.85
2023-11-23 09:20:00,SystemResetWarning,0829.4,5.00,000.00,024.4,023.4,000.0,033.0,025.5,10.0,0000.0,0008.69,0002.78,0001.86
2023-11-23 09:21:00,SystemResetWarning,0829.4,5.00,000.00,024.4,023.4,000.0,032.9,025.5,10.1,0000.0,0008.23,0002.79,0001.87
2023-11-23 09:22:00,SystemResetWarning,0829.4,5.00,000.00,024.4,023.3,000.0,032.9,025.5,10.1,0000.0,0007.93,0002.79,0001.87
2023-11-23 09:23:00,SystemResetWarning,0829.4,4.99,000.00,024.4,023.3,000.0,032.9,025.5,10.1,0000.0,0007.39,0002.80,0001.87
2023-11-23 09:24:00,SystemResetWarning,0829.4,4.99,000.00,024.4,023.3,000.0,032.9,025.5,10.1,0000.0,0007.41,0002.79,0001.85
2023-11-23 09:25:00,SystemResetWarning,0829.4,5.00,000.00,024.4,023.3,000.0,032.9,025.5,10.1,0000.0,0007.50,0002.78,0001.83
2023-11-23 09:26:00,SystemResetWarning,0829.5,5.01,000.00,024.3,023.3,000.0,032.9,025.5,10.1,0000.0,0007.01,0002.74,0001.80
2023-11-23 09:27:00,SystemResetWarning,0829.5,5.01,000.00,024.3,023.3,000.0,032.8,025.5,10.2,0000.0,0007.41,0002.76,0001.80
2023-11-23 09:28:00,SystemResetWarning,0829.5,5.00,000.00,024.3,023.2,000.0,032.8,025.5,10.2,0000.0,0007.23,0002.74,0001.79
2023-11-23 09:29:00,SystemResetWarning,0829.4,5.00,000.00,024.3,023.2,000.0,032.8,025.4,10.2,0000.0,0006.37,0002.67,0001.77
2023-11-23 09:30:00,SystemResetWarning,0829.4,4.99,000.00,024.3,023.2,000.0,032.8,025.5,10.3,0000.0,0006.35,0002.62,0001.74
2023-11-23 09:31:00,SystemResetWarning,0829.4,4.99,000.00,024.3,023.2,000.0,032.8,025.4,10.3,0000.0,0006.08,0002.54,0001.71
2023-11-23 09:32:00,SystemResetWarning,0829.4,4.99,000.00,024.3,023.2,000.0,032.8,025.4,10.3,0000.0,0006.20,0002.53,0001.69
2023-11-23 09:33:00,SystemResetWarning,0829.4,5.01,000.00,024.3,023.2,000.0,032.8,025.4,10.3,0000.0,0007.03,0002.55,0001.67
2023-11-23 09:34:00,SystemResetWarning,0829.4,5.01,000.00,024.2,023.2,000.0,032.8,025.5,10.3,0000.0,0007.08,0002.56,0001.67
2023-11-23 09:35:00,SystemResetWarning,0829.4,5.01,000.00,024.2,023.2,000.0,032.7,025.4,10.3,0000.0,0008.02,0002.63,0001.67
2023-11-23 09:36:00,SystemResetWarning,0829.4,5.01,000.00,024.2,023.2,000.0,032.7,025.4,10.3,0000.0,0008.36,0002.63,0001.67
2023-11-23 09:37:00,SystemResetWarning,0829.4,4.99,000.00,024.2,023.2,000.0,032.7,025.4,10.3,0000.0,0008.49,0002.68,0001.65
2023-11-23 09:38:00,SystemResetWarning,0829.4,5.00,000.00,024.2,023.2,000.0,032.7,025.4,10.3,0000.0,0008.22,0002.69,0001.63
2023-11-23 09:39:00,SystemResetWarning,0829.4,5.00,000.00,024.2,023.2,000.0,032.7,025.4,10.3,0000.0,0008.73,0002.68,0001.61
2023-11-23 09:40:00,SystemResetWarning,0829.4,4.99,000.00,024.2,023.2,000.0,032.7,025.4,10.3,0000.0,0009.09,0002.66,0001.60
2023-11-23 09:41:00,SystemResetWarning,0829.4,5.00,000.00,024.2,023.2,000.0,032.7,025.4,10.3,0000.0,0008.98,0002.61,0001.58
2023-11-23 09:42:00,SystemResetWarning,0829.4,5.01,000.00,024.2,023.2,000.0,032.7,025.5,10.3,0000.0,0009.24,0002.62,0001.56
2023-11-23 09:43:00,SystemResetWarning,0829.4,5.00,000.00,024.2,023.3,000.0,032.7,025.4,10.3,0000.0,0009.26,0002.60,0001.55
2023-11-23 09:44:00,SystemResetWarning,0829.5,5.00,000.00,024.2,023.3,000.0,032.7,025.5,10.3,0000.0,0008.82,0002.57,0001.52
2023-11-23 09:45:00,SystemResetWarning,0829.5,5.00,000.00,024.2,023.3,000.0,032.6,025.5,10.3,0000.0,0008.99,0002.56,0001.50
2023-11-23 09:46:00,SystemResetWarning,0829.5,5.00,000.00,024.2,023.3,000.0,032.6,025.5,10.2,0000.0,0008.34,0002.47,0001.47
2023-11-23 09:47:00,SystemResetWarning,0829.5,5.00,000.00,024.2,023.3,000.0,032.6,025.5,10.2,0000.0,0007.87,0002.43,0001.45
2023-11-23 09:48:00,SystemResetWarning,0829.5,5.00,000.00,024.2,023.3,000.0,032.6,025.5,10.2,0000.0,0007.72,0002.39,0001.44
2023-11-23 09:49:00,SystemResetWarning,0829.6,4.99,000.00,024.3,023.4,000.0,032.6,025.5,10.2,0000.0,0007.66,0002.37,0001.43
2023-11-23 09:50:00,SystemResetWarning,0829.6,4.99,000.00,024.3,023.4,000.0,032.6,025.5,10.2,0000.0,0007.15,0002.40,0001.42
2023-11-23 09:51:00,SystemResetWarning,0829.6,5.00,000.00,024.3,023.4,000.0,032.6,025.5,10.2,0000.0,0006.75,0002.41,0001.42
2023-11-23 09:52:00,SystemResetWarning,0829.6,5.00,000.00,024.3,023.4,000.0,032.6,025.6,10.2,0000.0,0006.82,0002.44,0001.41
2023-11-23 09:53:00,SystemResetWarning,0829.6,5.00,000.00,024.3,023.4,000.0,032.6,025.6,10.2,0000.0,0006.46,0002.42,0001.41
2023-11-23 09:54:00,SystemResetWarning,0829.7,5.00,000.00,024.3,023.5,000.0,032.6,025.6,10.2,0000.0,0007.08,0002.41,0001.40
2023-11-23 09:55:00,SystemResetWarning,0829.7,5.00,000.00,024.3,023.5,000.0,032.6,025.6,10.2,0000.0,0008.00,0002.42,0001.40
2023-11-23 09:56:00,SystemResetWarning,0829.7,5.00,000.00,024.4,023.5,000.0,032.6,025.6,10.2,0000.0,0007.83,0002.43,0001.40
2023-11-23 09:57:00,SystemResetWarning,0829.7,5.01,000.00,024.4,023.5,000.0,032.6,025.6,10.2,0000.0,0008.26,0002.42,0001.40
2023-11-23 09:58:00,SystemResetWarning,0829.7,5.01,000.00,024.4,023.5,000.0,032.7,025.6,10.2,0000.0,0008.50,0002.43,0001.41
2023-11-23 09:59:00,SystemResetWarning,0829.7,5.00,000.00,024.4,023.5,000.0,032.7,025.6,10.2,0000.0,0008.92,0002.44,0001.43
